This demonstration page uses our WeatherBlox Daily Observations layout. Learn more.

Left ArrowRight Arrow

Hourly Observations for November 23, 2018

Temp ( °F °C ) Dew Point ( °F °C ) Humidity (%) Winds ( mph kmh ) Pressure ( in mb ) Visibility ( mi km ) Precip ( " mm )
12:52 am 00:52 Mostly Cloudy 49 9.4 34 1.1 56 56 S 21 33 29.76 1008 10 16 0.00 0.00
1:52 am 01:52 Cloudy 49 9.4 34 1.1 56 56 S 20 31 29.73 1007 10 16 0.00 0.00
2:52 am 02:52 Cloudy 49 9.4 34 1.1 56 56 S 18 30 29.71 1006 10 16 0.00 0.00
3:52 am 03:52 Cloudy 49 9.4 34 1.1 56 56 S 18 30 29.66 1004 10 16 0.00 0.00
4:52 am 04:52 Cloudy 49 9.4 35 1.7 59 59 S 17 28 29.65 1004 10 16 0.00 0.00
5:52 am 05:52 Cloudy 49 9.4 35 1.7 59 59 S 18 30 29.65 1004 10 16 0.00 0.00
6:52 am 06:52 Cloudy 49 9.4 35 1.7 59 59 SSE 18 30 29.62 1003 10 16 0.00 0.00
7:52 am 07:52 Cloudy with Light Rain 48 8.9 36 2.2 63 63 S 16 26 29.61 1003 10 16 0.00 0.03
8:52 am 08:52 Cloudy with Light Rain 46 7.8 39 3.9 77 77 S 14 22 29.61 1003 6 10 0.03 0.76
10:29 am 10:29 Cloudy 47 8.3 40 4.4 77 77 SSE 14 22 29.59 1002 10 16 0.00 0.03
10:52 am 10:52 Cloudy 47 8.3 40 4.4 77 77 S 13 20 29.57 1001 10 16 0.00 0.03
11:52 am 11:52 Cloudy 47 8.3 40 4.4 77 77 SSE 8 13 29.54 1000 10 16 0.00 0.00
12:52 pm 12:52 Cloudy 48 8.9 41 5 77 77 SSE 10 17 29.51 999 10 16 0.00 0.03
1:52 pm 13:52 Cloudy 52 11.1 42 5.6 69 69 S 12 19 29.49 999 10 16 0.00 0.00
2:52 pm 14:52 Mostly Cloudy 54 12.2 43 6.1 67 67 S 9 15 29.47 998 10 16 0.00 0.00
3:52 pm 15:52 Mostly Cloudy 56 13.3 44 6.7 65 65 SW 7 11 29.48 998 10 16 0.00 0.00
4:52 pm 16:52 Mostly Cloudy 55 12.8 43 6.1 64 64 W 9 15 29.50 999 10 16 0.00 0.00
5:52 pm 17:52 Mostly Cloudy 48 8.9 38 3.3 68 68 NW 5 7 29.51 999 10 16 0.00 0.00
6:52 pm 18:52 Mostly Cloudy 43 6.1 36 2.2 76 76 NE 3 6 29.52 1000 10 16 0.00 0.00
7:52 pm 19:52 Mostly Cloudy 41 5 35 1.7 79 79 Calm 29.54 1000 10 16 0.00 0.00
8:52 pm 20:52 Mostly Cloudy 44 6.7 36 2.2 73 73 Calm 29.54 1001 10 16 0.00 0.00
9:52 pm 21:52 Mostly Cloudy 42 5.6 36 2.2 79 79 Calm 29.55 1001 10 16 0.00 0.00
10:52 pm 22:52 Mostly Cloudy 43 6.1 33 0.6 68 68 NNW 5 7 29.57 1001 10 16 0.00 0.00
11:52 pm 23:52 Partly Cloudy 42 5.6 31 -0.6 65 65 VRB 3 6 29.58 1002 10 16 0.00 0.00

Powered by AerisWeather